Overview Statistics Trail Chart Weather Telemetry Raw packets
 

This is the latest recevied weather packets stored in our database for station/object N5JXS. If no packets are shown the sender has not sent any weather packets the latest 10 day(s).

<< 29 30 31 32 33 34 35 >>
Time Temp. Humidity Pressure Rain* Wind** Luminosity Snow
1788424733 16.67° C 47% 1023.4 hPa 0 mm - 0 W/m² -
1788424429 16.67° C 46% 1023.7 hPa 0 mm - 0 W/m² -
1788424127 16.11° C 48% 1023.7 hPa 0 mm - 0 W/m² -
1788423823 16.11° C 48% 1023.9 hPa 0 mm - 0 W/m² -
1788423518 15.56° C 50% 1023.7 hPa 0 mm - 0 W/m² -
1788423213 15.56° C 57% 1023.6 hPa 0 mm - 0 W/m² -
1788422909 15.56° C 55% 1023.6 hPa 0 mm - 0 W/m² -
1788422607 15.56° C 55% 1023.5 hPa 0 mm - 0 W/m² -
1788422306 16.11° C 55% 1023.6 hPa 0 mm - 0 W/m² -
1788422001 15.56° C 53% 1023.6 hPa 0 mm - 0 W/m² -
1788421701 15.56° C 57% 1024 hPa 0 mm - 0 W/m² -
1788421395 15.56° C 57% 1023.7 hPa 0 mm - 0 W/m² -
1788421091 16.11° C 56% 1023.7 hPa 0 mm - 0 W/m² -
1788420786 16.11° C 58% 1023.9 hPa 0 mm - 0 W/m² -
1788420482 16.11° C 57% 1024.1 hPa 0 mm - 0 W/m² -
1788420178 15.56° C 60% 1023.7 hPa 0 mm - 0 W/m² -
1788419875 15.56° C 60% 1024.1 hPa 0 mm - 0 W/m² -
1788419570 15.56° C 60% 1023.6 hPa 0 mm - 0 W/m² -
1788419264 15.56° C 59% 1024 hPa 0 mm - 0 W/m² -
1788418960 16.11° C 58% 1024 hPa 0 mm - 0 W/m² -
1788418655 16.11° C 58% 1024 hPa 0 mm - 0 W/m² -
1788418354 15.56° C 58% 1023.7 hPa 0 mm - 0 W/m² -
1788418053 15.56° C 59% 1023.7 hPa 0 mm - 0 W/m² -
1788417749 15.56° C 60% 1023.7 hPa 0 mm - 0 W/m² -
1788417445 15.56° C 60% 1024 hPa 0 mm - 0 W/m² -

* Rain latest hour (hover to see other rain measurements)
** Current wind speed in m/s (hover to see current wind gust speed)